Regional Weather Roundup
Issued by NWS

Home | Current Version | Previous Version | Text Only | Print | Product List | Glossary Off
Versions: 1 2 3 4 5 6 7 8 9 10 11 12 13 14 15 16 17 18 19 20 21 22 23 24 25 26 27 28 29 30 31 32 33 34 35 36 37 38 39 40 41 42 43 44 45 46 47 48 49 50

000
ASUS45 KBOU 240207
RWRCO

WEATHER ROUNDUP FOR COLORADO
NATIONAL WEATHER SERVICE DENVER/BOULDER CO
800 PM MDT TUE AUG 23 2016

NOTE: "FAIR" INDICATES FEW OR NO CLOUDS BELOW 12000 FEET WITH NO
SIGNIFICANT WEATHER AND/OR OBSTRUCTIONS TO VISIBILITY.

COZ001>005-013-030-031-240300-
...NORTHWEST COLORADO...

CITY           SKY/WX    TMP DP  RH WIND       PRES   REMARKS
CRAIG          LGT RAIN  60  47  61 S28G37    30.22S
HAYDEN         CLOUDY    59  39  47 NW13G21   30.28R
MEEKER         CLOUDY    61  43  51 E12G21    30.25R
MOUNT WERNER   NOT AVBL
STEAMBOAT SPGS CLOUDY    62  40  43 W14G32    30.28R
WALDEN         MOCLDY    57  32  38 E8        30.32R
$$

COZ006>008-011-240300-
...WEST CENTRAL VALLEYS...

CITY           SKY/WX    TMP DP  RH WIND       PRES   REMARKS
GRAND JUNCTION FAIR      74  47  38 E15       30.13R
MONTROSE       CLOUDY    65  46  50 SE15      30.24R
EAGLE          CLOUDY    70  36  28 NW6       30.24R
RIFLE          LGT RAIN  59  52  77 NW10      30.25R
DELTA          NOT AVBL
NUCLA          NOT AVBL
$$

COZ017>023-064>068-240300-
...SOUTHWEST COLORADO...

CITY           SKY/WX    TMP DP  RH WIND       PRES   REMARKS
DURANGO        FAIR      56  50  80 CALM      30.28S
CORTEZ         LGT RAIN  56  53  90 E8        30.23F
PAGOSA SPRINGS FAIR      52  50  93 CALM      30.34S
TELLURIDE      LGT RAIN  46  44  90 E6        30.45S
WOLF CREEK PAS FAIR      36  36 100 CALM      30.58S
$$

COZ009-010-012-014-032>034-037-058>063-240300-
...CENTRAL COLORADO...

CITY           SKY/WX    TMP DP  RH WIND       PRES   REMARKS
ASPEN          LGT RAIN  53  48  83 SE13      30.35R
BUENA VISTA    RAIN      52  49  89 S3        30.40R
COPPER MTN     LGT RAIN  41  36  81 SE13G18   30.60R
BERTHOUD PASS  LGT RAIN  32  19  59 SE15      30.63R VSB 1   WCI  22
COTTONWOOD PAS LGT RAIN  48  46  93 SE8       30.48R
GUNNISON       MOCLDY    52  46  82 CALM      30.39R
KREMMLING      MOCLDY    64  32  29 S17       30.28R
LEADVILLE      RAIN      43  41  93 CALM      30.48R FOG
MONARCH PASS   LGT RAIN  37  37 100 NE20      30.65S VSB<1/4
SALIDA         CLOUDY    55  51  89 CALM      30.45R
SUNLIGHT       DRIZZLE   45  37  76 E12G22    30.55R
WILKERSON PASS LGT RAIN  39  37  93 S10G17    30.58R
$$

COZ069>075-240300-
...SAN LUIS VALLEY/SANGRE DE CRISTO MOUNTAINS...

CITY           SKY/WX    TMP DP  RH WIND       PRES   REMARKS
ALAMOSA        CLOUDY    59  43  55 NW13      30.31R
LA VETA PASS   CLOUDY    46  41  81 CALM      30.47R
SAGUACHE       CLOUDY    59  43  55 N8        30.33R
$$

COZ035-036-038>040-240300-
...NORTHERN COLORADO FRONT RANGE...

CITY           SKY/WX    TMP DP  RH WIND       PRES   REMARKS
DENVER INTL AP CLOUDY    74  40  29 NW21      30.13S
DMNS CITY PARK   N/A     72  38  28 NW9G17    30.13F
AURORA         MOCLDY    72  39  30 NW12      30.14F
FRONT RANGE AP CLOUDY    75  39  27 NW16G22   30.14R
ERIE MUNI ARPT CLOUDY    72  39  29 SW17G26   30.14S
BOULDER MUN AP MOCLDY    73  39  29 SW6G17    30.16R
CENTENNIAL     CLOUDY    69  41  36 W12       30.17R
BROOMFIELD     MOCLDY    70  41  35 SW21      30.19R
FORT COLLINS   FAIR      73  39  29 SW7       30.11R
LONGMONT       CLOUDY    77  39  26 S7        30.15R
$$

COZ041-046-047-076>085-087-088-240300-
...PIKES PEAK/PALMER DIVIDE AND SOUTHERN FOOTHILLS...

CITY           SKY/WX    TMP DP  RH WIND       PRES   REMARKS
COLO. SPRINGS  CLOUDY    71  37  28 W14       30.19F
A. F. ACADEMY  MOCLDY    65  42  43 NE3       30.24R
SCHRIEVER AFB  NOT AVBL
ELLICOTT       NOT AVBL
FALCON         CLOUDY    65  39  39 W15       30.25R
FORT CARSON    NOT AVBL
LIMON          FAIR      73  30  20 W5        30.11R
MONUMENT HILL  CLOUDY    61  39  44 NW17      30.26R
TRINIDAD       MOCLDY    71  46  40 NW12      30.13R
$$

COZ042>045-048>051-090-091-240300-
...NORTHEAST COLORADO...

CITY           SKY/WX    TMP DP  RH WIND       PRES   REMARKS
GREELEY ARPT   FAIR      75  41  29 W10       30.10R
AKRON          FAIR      75  28  17 NE9       30.06R
BURLINGTON     FAIR      73  27  18 N8        30.01R
WRAY           FAIR      72  36  26 NE8       29.99R
STERLING       FAIR      77  43  29 NE3       30.01R
HOLYOKE        FAIR      72  43  35 NE9       30.00R
FORT MORGAN    FAIR      74  29  19 NW9       30.08R
$$

COZ086-089-092>099-240300-
...SOUTHEAST COLORADO...

CITY           SKY/WX    TMP DP  RH WIND       PRES   REMARKS
PUEBLO         MOCLDY    71  51  49 W28G35    30.11R
LA JUNTA       FAIR      84  38  19 N8        29.97R
LAMAR          FAIR      80  46  30 NE8       29.91R
SPRINGFIELD      N/A     72  53  51 NE8       29.98R
$$



USA.gov is the U.S. government's official web portal to all federal, state and local government web resources and services.